STARLINK-11614 [DTC] (63270 NORAD) Tracking and Keplerian Element Data

This shows tracking and keplerian element data for the satellite.

Feedback or suggestion? Click here.




ElementValue
Catalog63270
NameSTARLINK-11614 [DTC]
Epoch Orbit4506
Epoch Day353.55111839
Epoch Year2025
RAAN235.4704
Inclination42.9989
Eccentricity0.000282
Argument of Perigee223.0583
Mean Anonmoly137.0064
Mean Motion15.71158452
Decay Rate0.00223781
L11 63270U 25053F 25353.55111839 .00223781 00000+0 16782-2 0 9992
L22 63270 42.9989 235.4704 0002820 223.0583 137.0064 15.71158452 45066



Live tracking and technical data element details for STARLINK-11614 [DTC] (NORAD 63270). STARLINK-11614 [DTC] can be tracked NOW for your location showing map with azimuth and elevation plus other details from your city location.







IsCatalogInMostPopularTable: catalog: 63270, numindb: 2
Update: records affected: 1



GetName: 63270 STARLINK-11614 [DTC]

Hit Count: updated at: Sat, 07 Feb 2026 08:33:10 GMT